EW7556 Weather Reports


time (UTC)temp
C
wind
direction
speed
KPH
gust
KPH
rain 1hr
cm
rain 24hr
cm
rain mn
cm
humidity
%
barometer
mb
20260904140054 9 187 0.0 0.0 0.00 0.46 0.00 91 1013.1
20260904134538 9 187 0.0 0.0 0.00 0.46 0.00 91 1012.8
20260904133043 9 187 0.0 0.0 0.00 0.46 0.00 91 1012.4
20260904131545 9 187 0.0 0.0 0.00 0.46 0.00 91 1012.3
20260904130048 8 187 0.0 1.6 0.00 0.46 0.00 91 1012.2
20260904124546 8 187 0.0 0.0 0.00 0.46 0.00 91 1012.2
20260904123042 8 187 0.0 0.0 0.00 0.46 0.00 91 1012.1
20260904121538 8 187 0.0 0.0 0.00 0.46 0.00 91 1012.0
20260904120024 8 187 1.6 3.2 0.00 0.46 0.00 91 1011.9
20260904114535 8 191 0.0 0.0 0.00 0.46 0.00 91 1012.0
20260904113038 8 191 0.0 0.0 0.00 0.46 0.00 91 1011.8
20260904111531 8 190 0.0 0.0 0.00 0.46 0.00 91 1011.7
20260904110016 8 191 0.0 0.0 0.00 0.46 0.00 91 1011.6
20260904104519 8 190 0.0 1.6 0.00 0.46 0.00 91 1011.3
20260904103025 8 190 0.0 1.6 0.00 0.46 0.00 91 1011.3
20260904101526 8 191 0.0 1.6 0.00 0.46 0.00 91 1011.2
20260904100009 7 188 1.6 3.2 0.00 0.46 0.00 91 1011.2
20260904094513 7 192 1.6 3.2 0.00 0.46 0.00 91 1011.2
20260904093016 7 195 0.0 1.6 0.00 0.46 0.00 91 1011.3
20260904091519 7 195 0.0 1.6 0.00 0.46 0.00 91 1011.3
20260904090007 7 195 0.0 0.0 0.00 0.46 0.00 91 1011.3
20260904084506 8 195 0.0 0.0 0.00 0.46 0.00 91 1011.3
20260904083008 8 195 0.0 1.6 0.00 0.46 0.00 91 1011.4
20260904081513 8 195 0.0 1.6 0.00 0.46 0.00 91 1011.4
20260904080118 8 195 0.0 1.6 0.00 0.46 0.00 91 1011.4
20260904074617 8 196 0.0 1.6 0.00 0.46 0.00 91 1011.5
20260904073109 8 196 0.0 3.2 0.00 0.46 0.00 91 1011.4
20260904071511 8 224 0.0 0.0 0.00 0.46 0.00 91 1011.4
20260904070131 8 224 0.0 0.0 0.00 0.46 0.46 91 1011.3
20260904064549 8 224 0.0 0.0 0.00 0.46 0.46 91 1011.2
20260904063057 8 224 0.0 0.0 0.00 0.46 0.46 91 1011.2
20260904061604 8 224 0.0 0.0 0.00 0.46 0.46 91 1011.1
20260904054553 8 224 0.0 0.0 0.00 0.46 0.46 91 1010.9
20260904053059 9 224 0.0 0.0 0.00 0.46 0.46 91 1010.9
20260904051606 9 224 0.0 0.0 0.00 0.46 0.46 91 1011.0
20260904044547 10 224 0.0 0.0 0.00 0.46 0.46 90 1011.0
20260904043103 10 224 0.0 0.0 0.00 0.46 0.46 90 1010.9
20260904041555 10 224 0.0 0.0 0.00 0.46 0.46 90 1011.0
20260904040058 11 224 0.0 0.0 0.00 0.46 0.46 90 1010.9
20260904034551 11 224 0.0 0.0 0.00 0.46 0.46 89 1010.8
20260904033048 12 224 0.0 1.6 0.00 0.46 0.46 88 1010.7
20260904031552 12 224 0.0 0.0 0.00 0.46 0.46 87 1010.6
20260904030055 13 224 0.0 0.0 0.00 0.46 0.46 85 1010.4
20260904024541 13 224 0.0 0.0 0.00 0.46 0.46 85 1010.3
20260904023048 13 224 0.0 0.0 0.00 0.46 0.46 86 1010.2
20260904021555 13 224 0.0 0.0 0.00 0.46 0.46 86 1010.0
20260904020051 14 224 0.0 0.0 0.00 0.46 0.46 84 1010.0
20260904014548 14 224 0.0 1.6 0.00 0.46 0.46 83 1009.9
20260904013042 15 224 0.0 4.8 0.00 0.46 0.46 82 1009.8
20260904011542 16 200 0.0 4.8 0.00 0.46 0.46 80 1009.8
20260904010046 16 242 0.0 4.8 0.00 0.46 0.46 81 1009.7
20260904004534 16 272 0.0 3.2 0.00 0.46 0.46 83 1009.6
20260904003034 15 293 0.0 3.2 0.00 0.46 0.46 85 1009.6
20260904001546 15 345 0.0 6.4 0.00 0.46 0.46 83 1009.7
20260904000136 16 330 1.6 6.4 0.00 0.46 0.46 83 1009.4
20260903234535 16 311 0.0 4.8 0.00 0.46 0.46 86 1009.5
20260903233038 16 289 1.6 8.0 0.00 0.46 0.46 90 1009.5
20260903231547 15 298 0.0 6.4 0.00 0.46 0.46 90 1009.7
20260903230051 15 343 0.0 4.8 0.03 0.46 0.46 90 1009.8
20260903224543 15 328 0.0 1.6 0.08 0.46 0.46 90 1009.9
20260903223036 14 27 0.0 1.6 0.18 0.46 0.46 90 1010.1
20260903221542 14 4 0.0 0.0 0.30 0.46 0.46 90 1010.0
20260903220107 13 199 0.0 0.0 0.36 0.43 0.43 90 1010.1
20260903214552 13 199 0.0 0.0 0.30 0.36 0.36 90 1010.1
20260903213056 13 199 0.0 0.0 0.28 0.28 0.28 89 1010.1
20260903211552 13 199 0.0 1.6 0.13 0.13 0.13 88 1010.0
20260903210104 13 199 0.0 3.2 0.08 0.08 0.08 88 1009.9
20260903204547 13 254 0.0 3.2 0.05 0.05 0.05 86 1009.8
20260903203050 14 231 0.0 6.4 0.00 0.00 0.00 85 1009.6
20260903201557 14 235 0.0 9.7 0.00 0.00 0.00 85 1009.5
20260903200058 14 248 3.2 8.0 0.00 0.00 0.00 84 1009.5
20260903194550 14 239 3.2 14.5 0.00 0.00 0.00 84 1009.4
20260903193052 15 224 1.6 12.9 0.00 0.00 0.00 84 1009.2
20260903191551 15 229 4.8 11.3 0.00 0.00 0.00 81 1009.1
20260903190107 16 240 6.4 12.9 0.00 0.00 0.00 78 1008.9
20260903184547 16 227 6.4 12.9 0.00 0.00 0.00 78 1008.9
20260903183054 15 238 3.2 9.7 0.00 0.00 0.00 82 1008.8
20260903181556 15 240 4.8 11.3 0.00 0.00 0.00 80 1008.7
20260903180105 16 239 4.8 9.7 0.00 0.00 0.00 79 1008.6
20260903174551 16 220 3.2 9.7 0.00 0.00 0.00 80 1008.3
20260903173055 16 221 3.2 12.9 0.00 0.00 0.00 79 1008.2
20260903171558 16 231 3.2 8.0 0.00 0.00 0.00 77 1008.0
20260903170112 16 243 1.6 6.4 0.00 0.00 0.00 78 1007.8
20260903164559 16 237 0.0 6.4 0.00 0.00 0.00 80 1007.7
20260903163006 15 214 0.0 4.8 0.00 0.00 0.00 81 1007.6
20260903161508 15 219 0.0 3.2 0.00 0.00 0.00 83 1007.6
20260903160114 14 188 0.0 1.6 0.00 0.00 0.00 84 1007.7
20260903154600 13 199 0.0 0.0 0.00 0.00 0.00 87 1007.6
20260903153103 12 183 0.0 1.6 0.00 0.00 0.00 90 1007.7
20260903151503 11 182 0.0 0.0 0.00 0.00 0.00 90 1007.6
20260903150120 11 182 0.0 0.0 0.00 0.00 0.00 90 1007.7
20260903144503 11 182 0.0 0.0 0.00 0.00 0.00 91 1007.7
20260903143007 10 182 0.0 0.0 0.00 0.00 0.00 91 1007.6
20260903141507 10 182 0.0 0.0 0.00 0.00 0.00 91 1007.5